DECAYED

OBJECT XX, 66911 (Decayed)

Orbit data source: Space-Track

You're viewing an Uncataloged Satellite

Recently launched and/or uncataloged satellites may have evolving metadata. Metadata may include but not limited to: Owner, Maufacturer, Bus, Motor, and Mission.

OBJECT XX, 66911 was an American satellite in LEO that was delivered to and deployed from the ISS. Unknown objects in Earth's orbit typically refer to objects detected orbiting the Earth but have not yet been identified or cataloged. These objects could be anything from previously untracked satellites, spent rocket stages, debris from satellite collisions, or even natural meteoroids temporarily captured by Earth's gravity. This object's orbit decayed before it could be identified.

Not visible in the next 10 days
Identifier
66911, 1998-067XX
Orbit
Decayed
Country
Flag of USUS
Related business
None
Manufacturer
Unknown
Mission
Decayed Amateur Technology
Bus & Motor
Unknown
Mass
Unknown
Launch date (UTC)
1998-11-20 (28 years ago)
Launch vehicle
FALCON 9
Launch site
Tyuratam Missile And Space Complex (TTMTR)
Object type
Unknown
Shape & HBR
Box, 0.1 m
Radar Cross Section
0.015 m²

Expand to show TLE details & history
Last TLE update: 1 month ago

TLE from 1 month ago
0 OBJECT XX
1 66911U 98067XX  26101.45822411  .06931681  12208-4  13558-2 0  9995
2 66911  51.5990 251.7761 0012204 297.7475  62.2310 16.30633237 20407
Epoch: 2026-04-11T10:59Z
TLE epoch observation values (Epoch: 2026-04-11T10:59:50.563Z)
Latitude
0.00006°
Longitude
-112.86178°
Altitude
187.873 km
Speed
7.797 km/s
True Right ascension
16h 47m 06s
True Declination
0° 00' 00"
Sunlit
Object was in full shadow at epoch
Visualization orbit readout
Latitude
Unknown
Longitude
Unknown
Altitude
Unknown
Speed
Unknown
Apparent Right ascension
Unknown
Apparent Declination
Unknown
Sunlit
N/A
Visualization observer readout
Local Sidereal Time
23:54:43
Azimuth
Unknown
Elevation
Unknown
Doppler factor
Unknown
Orbital elements
Apogee altitude
199.388 km
Perigee altitude
183.353 km
Semi-major axis
6,569.508 km
Eccentricity
0.00122
Inclination
51.599°
RAAN
251.7761°
Arg. of periapsis
297.7475°
True anomaly
62.35483°
Mean anomaly
62.231°
Eccentric anomaly
62.29291°
Mean motion
4.07609 °/min
Orbital period
88.32 mins
BSTAR
0.0013558
Loading maneuver chart data...
Computing Atmospheric mass density...

Documentation

Showing up to 5 results
|